When you browse on this site, cookies collect data to enhance your experience and personalize the content and advertising you see.
Visit our Privacy Policy to learn more. By continuing to use the site, you agree to this use of cookies and data.
  • In Hungary
  • List of Countries
  • For 7 days
  • Water Temperature
  • Satellite Maps
  • Weather Map
  • News
  • Weather Widgets
  • user-avatar
    Login

    Hourly Weather Mrągowo

    Today, 17 June, Monday

    Time Temperature Precipitation Wind Pressure Humidity
    00:00 +14°C° 0 mm 3 mps 750 mmHg 95%
    01:00 +16°C° 0 mm 2 mps 750 mmHg 93%
    02:00 +14°C° 0 mm 3 mps 750 mmHg 92%
    03:00 +14°C° 0 mm 3 mps 750 mmHg 91%
    04:00 +14°C° 0 mm 3 mps 750 mmHg 90%
    05:00 +15°C° 0 mm 4 mps 750 mmHg 88%
    06:00 +17°C° 0 mm 4 mps 751 mmHg 86%
    07:00 +17°C° 0 mm 4 mps 751 mmHg 85%
    08:00 +18°C° 0.1 mm 4 mps 751 mmHg 83%
    09:00 +19°C° 0.1 mm 4 mps 751 mmHg 82%
    10:00 +20°C° 0.1 mm 4 mps 751 mmHg 80%
    11:00 +20°C° 0.2 mm 5 mps 752 mmHg 78%
    12:00 +21°C° 0.2 mm 5 mps 752 mmHg 75%
    13:00 +22°C° 0.2 mm 5 mps 752 mmHg 73%
    14:00 +22°C° 0.1 mm 5 mps 752 mmHg 73%
    15:00 +21°C° 0.1 mm 6 mps 752 mmHg 74%
    16:00 +21°C° 0.1 mm 6 mps 752 mmHg 74%
    17:00 +20°C° 0 mm 5 mps 752 mmHg 77%
    18:00 +19°C° 0 mm 4 mps 752 mmHg 80%
    19:00 +17°C° 0 mm 3 mps 752 mmHg 83%
    20:00 +16°C° 0 mm 2 mps 752 mmHg 87%
    21:00 +15°C° 0 mm 2 mps 753 mmHg 91%
    22:00 +13°C° 0 mm 2 mps 753 mmHg 94%
    23:00 +13°C° 0 mm 2 mps 753 mmHg 94%

    Tomorrow, 18 June, Tuesday

    Time Temperature Precipitation Wind Pressure Humidity
    00:00 +13°C° 0 mm 1 mps 753 mmHg 94%
    01:00 +12°C° 0 mm 1 mps 753 mmHg 93%
    02:00 +12°C° 0 mm 1 mps 753 mmHg 93%
    03:00 +12°C° 0 mm 1 mps 753 mmHg 92%
    04:00 +12°C° 0 mm 1 mps 753 mmHg 92%
    05:00 +14°C° 0 mm 1 mps 753 mmHg 86%
    06:00 +16°C° 0 mm 1 mps 753 mmHg 80%
    07:00 +17°C° 0 mm 0 mps 754 mmHg 74%
    08:00 +19°C° 0 mm 0 mps 754 mmHg 68%
    09:00 +21°C° 0 mm 0 mps 754 mmHg 63%
    10:00 +22°C° 0 mm 0 mps 754 mmHg 57%
    11:00 +24°C° 0 mm 1 mps 753 mmHg 55%
    12:00 +25°C° 0 mm 1 mps 753 mmHg 53%
    13:00 +25°C° 0 mm 1 mps 753 mmHg 52%
    14:00 +25°C° 0 mm 2 mps 752 mmHg 54%
    15:00 +25°C° 0 mm 2 mps 752 mmHg 56%
    16:00 +25°C° 0 mm 2 mps 752 mmHg 58%
    17:00 +23°C° 0 mm 2 mps 752 mmHg 65%
    18:00 +21°C° 0 mm 2 mps 751 mmHg 71%
    19:00 +20°C° 0 mm 2 mps 751 mmHg 78%
    20:00 +19°C° 0 mm 2 mps 751 mmHg 81%
    21:00 +17°C° 0 mm 2 mps 751 mmHg 84%
    22:00 +16°C° 0 mm 2 mps 751 mmHg 88%
    23:00 +16°C° 0 mm 2 mps 751 mmHg 87%

    Day after tomorrow, 19 June, Wednesday

    Time Temperature Precipitation Wind Pressure Humidity
    00:00 +15°C° 0 mm 2 mps 751 mmHg 87%
    01:00 +15°C° 0 mm 2 mps 751 mmHg 86%
    02:00 +15°C° 0 mm 2 mps 750 mmHg 87%
    03:00 +15°C° 0 mm 2 mps 750 mmHg 88%
    04:00 +14°C° 0 mm 2 mps 750 mmHg 89%
    05:00 +16°C° 0 mm 3 mps 750 mmHg 84%
    06:00 +18°C° 0 mm 3 mps 750 mmHg 79%
    07:00 +20°C° 0 mm 4 mps 750 mmHg 73%
    08:00 +21°C° 0 mm 4 mps 750 mmHg 69%
    09:00 +23°C° 0 mm 4 mps 749 mmHg 65%
    10:00 +25°C° 0 mm 4 mps 749 mmHg 61%
    11:00 +26°C° 0 mm 4 mps 749 mmHg 60%
    12:00 +26°C° 0 mm 4 mps 748 mmHg 59%
    13:00 +27°C° 0 mm 4 mps 748 mmHg 58%
    14:00 +27°C° 0.6 mm 4 mps 747 mmHg 65%
    15:00 +26°C° 0.6 mm 4 mps 747 mmHg 72%
    16:00 +25°C° 0.6 mm 4 mps 747 mmHg 79%
    17:00 +23°C° 1.9 mm 4 mps 746 mmHg 82%
    18:00 +22°C° 1.9 mm 4 mps 746 mmHg 86%
    19:00 +21°C° 1.9 mm 4 mps 746 mmHg 89%
    20:00 +21°C° 0.4 mm 3 mps 746 mmHg 91%
    21:00 +20°C° 0.4 mm 3 mps 746 mmHg 93%
    22:00 +19°C° 0.4 mm 3 mps 746 mmHg 95%
    23:00 +19°C° 0 mm 3 mps 745 mmHg 96%

    20 June, Thursday

    Time Temperature Precipitation Wind Pressure Humidity
    00:00 +19°C° 0 mm 3 mps 745 mmHg 97%
    01:00 +19°C° 0 mm 3 mps 745 mmHg 98%
    02:00 +19°C° 0 mm 3 mps 745 mmHg 98%
    03:00 +19°C° 0 mm 2 mps 745 mmHg 98%
    04:00 +18°C° 0 mm 2 mps 745 mmHg 98%
    05:00 +20°C° 0 mm 2 mps 745 mmHg 95%
    06:00 +21°C° 0 mm 2 mps 745 mmHg 91%
    07:00 +24°C° 0 mm 2 mps 745 mmHg 88%
    08:00 +25°C° 0.1 mm 2 mps 745 mmHg 81%
    09:00 +26°C° 0.1 mm 2 mps 745 mmHg 74%
    10:00 +28°C° 0.1 mm 2 mps 745 mmHg 66%
    11:00 +28°C° 0 mm 2 mps 745 mmHg 64%
    12:00 +29°C° 0 mm 2 mps 745 mmHg 61%
    13:00 +29°C° 0 mm 2 mps 745 mmHg 58%
    14:00 +29°C° 0.1 mm 2 mps 745 mmHg 61%
    15:00 +28°C° 0.1 mm 1 mps 746 mmHg 64%
    16:00 +28°C° 0.1 mm 1 mps 746 mmHg 67%
    17:00 +27°C° 0.4 mm 1 mps 746 mmHg 74%
    18:00 +26°C° 0.4 mm 1 mps 746 mmHg 80%
    19:00 +24°C° 0.4 mm 2 mps 746 mmHg 86%
    20:00 +23°C° 0.1 mm 2 mps 746 mmHg 89%
    21:00 +20°C° 0.1 mm 2 mps 746 mmHg 93%
    22:00 +19°C° 0.1 mm 2 mps 746 mmHg 97%
    23:00 +18°C° 0.1 mm 2 mps 746 mmHg 97%

    21 June, Friday

    Time Temperature Precipitation Wind Pressure Humidity
    00:00 +18°C° 0.1 mm 2 mps 746 mmHg 97%
    01:00 +17°C° 0.1 mm 2 mps 746 mmHg 97%
    02:00 +17°C° 0 mm 2 mps 746 mmHg 98%
    03:00 +17°C° 0 mm 2 mps 746 mmHg 98%
    04:00 +18°C° 0 mm 1 mps 746 mmHg 98%
    05:00 +19°C° 0 mm 1 mps 746 mmHg 95%
    06:00 +21°C° 0 mm 1 mps 746 mmHg 91%
    07:00 +22°C° 0 mm 1 mps 746 mmHg 88%
    08:00 +24°C° 0.6 mm 1 mps 746 mmHg 82%
    09:00 +26°C° 0.6 mm 1 mps 746 mmHg 77%
    10:00 +28°C° 0.6 mm 1 mps 746 mmHg 71%
    11:00 +28°C° 1.1 mm 1 mps 746 mmHg 71%
    12:00 +28°C° 1.1 mm 1 mps 746 mmHg 70%
    13:00 +28°C° 1.1 mm 2 mps 746 mmHg 69%
    14:00 +28°C° 1.2 mm 2 mps 745 mmHg 72%
    15:00 +27°C° 1.2 mm 2 mps 745 mmHg 75%
    16:00 +27°C° 1.2 mm 2 mps 745 mmHg 77%
    17:00 +25°C° 1 mm 2 mps 746 mmHg 83%
    18:00 +22°C° 1 mm 3 mps 746 mmHg 88%
    19:00 +20°C° 1 mm 4 mps 746 mmHg 94%
    20:00 +18°C° 0 mm 4 mps 746 mmHg 94%
    21:00 +17°C° 0 mm 3 mps 747 mmHg 94%
    22:00 +16°C° 0 mm 3 mps 747 mmHg 95%
    23:00 +14°C° 0 mm 3 mps 747 mmHg 96%

    22 June, Saturday

    Time Temperature Precipitation Wind Pressure Humidity
    00:00 +14°C° 0 mm 3 mps 748 mmHg 97%
    01:00 +13°C° 0 mm 3 mps 748 mmHg 98%
    02:00 +13°C° 0 mm 3 mps 748 mmHg 97%
    03:00 +13°C° 0 mm 3 mps 748 mmHg 97%
    04:00 +13°C° 0 mm 3 mps 749 mmHg 97%
    05:00 +14°C° 0 mm 3 mps 749 mmHg 93%
    06:00 +16°C° 0 mm 3 mps 749 mmHg 89%
    07:00 +18°C° 0 mm 4 mps 750 mmHg 86%
    08:00 +19°C° 0 mm 4 mps 750 mmHg 82%
    09:00 +20°C° 0 mm 4 mps 750 mmHg 78%
    10:00 +21°C° 0 mm 4 mps 750 mmHg 74%
    11:00 +21°C° 0 mm 4 mps 750 mmHg 72%
    12:00 +21°C° 0 mm 4 mps 751 mmHg 70%
    13:00 +22°C° 0 mm 5 mps 751 mmHg 68%
    14:00 +21°C° 0 mm 5 mps 751 mmHg 70%
    15:00 +21°C° 0 mm 5 mps 751 mmHg 71%
    16:00 +20°C° 0 mm 5 mps 751 mmHg 72%
    17:00 +19°C° 0 mm 5 mps 751 mmHg 75%
    18:00 +18°C° 0 mm 4 mps 751 mmHg 78%
    19:00 +15°C° 0 mm 4 mps 751 mmHg 81%
    20:00 +14°C° 0 mm 4 mps 751 mmHg 84%
    21:00 +13°C° 0 mm 3 mps 751 mmHg 87%
    22:00 +11°C° 0 mm 3 mps 751 mmHg 90%
    23:00 +11°C° 0 mm 3 mps 751 mmHg 89%
    Show more